FW3031 Weather Reports


time (UTC)temp
F
wind
direction
speed
knots
gust
knots
rain 1hr
in
rain 24hr
in
rain mn
in
humidity
%
barometer
mb
20260504060105 83 0 0.0 0.0 0.00 0.00 0.00 39 1012.8
20260504050520 84 190 0.0 4.3 0.00 0.00 0.00 37 1013.2
20260504050020 84 190 0.9 7.0 0.00 0.00 0.00 37 1013.2
20260504045519 85 190 0.0 7.0 0.00 0.00 0.00 37 1013.2
20260504045019 84 190 0.9 4.3 0.00 0.00 0.00 37 1013.1
20260504044558 85 0 0.0 3.5 0.00 0.00 0.00 37 1012.5
20260504044522 84 190 0.0 3.5 0.00 0.00 0.00 37 1013.1
20260504044019 85 190 0.0 3.5 0.00 0.00 0.00 37 1012.9
20260504043518 85 190 0.0 0.0 0.00 0.00 0.00 38 1012.9
20260504043101 85 0 0.0 1.7 0.00 0.00 0.00 38 1012.4
20260504043021 85 190 0.0 1.7 0.00 0.00 0.00 38 1012.9
20260504042518 85 190 0.0 1.7 0.00 0.00 0.00 38 1012.9
20260504042017 85 190 0.0 0.0 0.00 0.00 0.00 38 1012.7
20260504041602 86 0 0.0 0.0 0.00 0.00 0.00 37 1012.2
20260504041518 86 190 0.0 0.0 0.00 0.00 0.00 37 1012.7
20260504041017 86 190 0.0 2.6 0.00 0.00 0.00 37 1012.6
20260504040517 86 190 0.0 2.6 0.00 0.00 0.00 37 1012.6
20260504040100 86 0 0.0 3.5 0.00 0.00 0.00 36 1012.0
20260504040018 86 190 0.0 0.0 0.00 0.00 0.00 37 1012.5
20260504035519 86 190 0.0 3.5 0.00 0.00 0.00 36 1012.4
20260504035120 86 190 0.0 3.5 0.00 0.00 0.00 36 1012.3
20260504034620 86 0 0.0 1.7 0.00 0.00 0.00 36 1011.7
20260504034517 86 190 0.0 0.0 0.00 0.00 0.00 36 1012.3
20260504034016 87 190 0.0 1.7 0.00 0.00 0.00 36 1012.1
20260504033518 87 190 0.0 3.5 0.00 0.00 0.00 35 1012.1
20260504033057 87 0 0.0 3.5 0.00 0.00 0.00 35 1011.4
20260504033015 87 190 0.0 3.5 0.00 0.00 0.00 35 1011.9
20260504032518 87 190 0.0 3.5 0.00 0.00 0.00 35 1011.8
20260504032015 87 190 0.0 3.5 0.00 0.00 0.00 36 1011.7
20260504031558 87 0 0.0 0.0 0.00 0.00 0.00 35 1011.1
20260504031516 87 190 0.0 0.0 0.00 0.00 0.00 36 1011.5
20260504031016 87 190 0.0 0.9 0.00 0.00 0.00 36 1011.4
20260504030517 87 190 0.0 0.9 0.00 0.00 0.00 36 1011.3
20260504030059 87 0 0.0 0.0 0.00 0.00 0.00 35 1010.6
20260504030015 87 190 0.0 0.0 0.00 0.00 0.00 35 1011.1
20260504025515 87 190 0.0 1.7 0.00 0.00 0.00 35 1010.9
20260504025015 87 190 0.0 1.7 0.00 0.00 0.00 35 1010.8
20260504024558 88 0 0.0 2.6 0.00 0.00 0.00 34 1010.2
20260504024514 88 190 0.0 2.6 0.00 0.00 0.00 35 1010.7
20260504024014 88 190 0.0 0.0 0.00 0.00 0.00 35 1010.6
20260504023514 88 190 0.0 0.0 0.00 0.00 0.00 34 1010.4
20260504023059 89 0 0.0 0.0 0.00 0.00 0.00 33 1009.8
20260504023014 89 190 0.0 0.0 0.00 0.00 0.00 34 1010.2
20260504022514 89 190 0.0 2.6 0.00 0.00 0.00 33 1010.0
20260504022014 89 190 0.0 2.6 0.00 0.00 0.00 33 1009.7
20260504021558 89 0 0.0 1.7 0.00 0.00 0.00 32 1009.2
20260504021516 89 190 0.0 1.7 0.00 0.00 0.00 33 1009.6
20260504021013 90 190 0.0 1.7 0.00 0.00 0.00 33 1009.5
20260504020513 90 190 0.0 1.7 0.00 0.00 0.00 33 1009.3
20260504020129 90 0 0.0 3.5 0.00 0.00 0.00 32 1008.9
20260504020015 90 190 0.0 1.7 0.00 0.00 0.00 32 1009.1
20260504015513 90 190 0.0 3.5 0.00 0.00 0.00 32 1009.0
20260504015013 91 190 0.9 2.6 0.00 0.00 0.00 31 1008.9
20260504014602 91 190 0.0 2.6 0.00 0.00 0.00 31 1008.6
20260504014513 91 190 0.0 2.6 0.00 0.00 0.00 32 1008.8
20260504014013 91 190 0.0 2.6 0.00 0.00 0.00 32 1008.7
20260504013511 91 190 0.0 4.3 0.00 0.00 0.00 32 1008.8
20260504013136 91 0 0.9 4.3 0.00 0.00 0.00 31 1008.4
20260504013017 91 190 0.9 4.3 0.00 0.00 0.00 32 1008.7
20260504012511 91 190 1.7 5.2 0.00 0.00 0.00 32 1008.6
20260504012011 91 190 0.9 6.1 0.00 0.00 0.00 32 1008.4
20260504011559 91 190 2.6 7.0 0.00 0.00 0.00 31 1008.0
20260504011511 91 190 1.7 7.0 0.00 0.00 0.00 32 1008.4
20260504011011 91 190 3.5 7.0 0.00 0.00 0.00 32 1008.3
20260504010510 92 190 1.7 7.0 0.00 0.00 0.00 32 1008.2
20260504010011 92 190 3.5 7.0 0.00 0.00 0.00 32 1008.0
20260504005510 92 190 2.6 7.0 0.00 0.00 0.00 32 1007.9
20260504005010 92 190 1.7 7.0 0.00 0.00 0.00 32 1007.8
20260504004600 92 190 3.5 9.6 0.00 0.00 0.00 31 1007.5
20260504004510 92 190 3.5 9.6 0.00 0.00 0.00 32 1007.7
20260504004010 92 190 3.5 11.3 0.00 0.00 0.00 32 1007.7
20260504003509 92 190 4.3 12.2 0.00 0.00 0.00 32 1007.6
20260504003058 92 190 6.1 12.2 0.00 0.00 0.00 31 1007.3
20260504003009 92 190 5.2 12.2 0.00 0.00 0.00 32 1007.5
20260504002509 93 190 3.5 12.2 0.00 0.00 0.00 32 1007.3
20260504002009 93 190 3.5 12.2 0.00 0.00 0.00 31 1007.3
20260504001602 94 190 4.3 12.2 0.00 0.00 0.00 29 1007.0
20260504001509 94 190 5.2 12.2 0.00 0.00 0.00 30 1007.2
20260504001009 95 190 4.3 10.4 0.00 0.00 0.00 28 1007.1
20260504000509 95 190 1.7 5.2 0.00 0.00 0.00 27 1007.0
20260504000111 95 190 0.9 6.1 0.00 0.00 0.00 26 1006.9
20260504000024 95 190 0.9 5.2 0.00 0.00 0.00 27 1007.0
20260503235510 95 190 1.7 6.1 0.00 0.00 0.00 27 1007.0
20260503235008 95 190 2.6 6.1 0.00 0.00 0.00 26 1007.0
20260503234607 95 190 2.6 9.6 0.00 0.00 0.00 26 1006.9
20260503234508 95 190 1.7 6.1 0.00 0.00 0.00 26 1007.0
20260503234008 95 190 1.7 9.6 0.00 0.00 0.00 26 1007.0
20260503233507 96 190 3.5 9.6 0.00 0.00 0.00 26 1007.0
20260503233100 96 190 4.3 9.6 0.00 0.00 0.00 25 1006.8
20260503233009 96 190 4.3 9.6 0.00 0.00 0.00 26 1007.0
20260503232506 96 190 2.6 7.8 0.00 0.00 0.00 26 1006.9
20260503232006 96 190 2.6 8.7 0.00 0.00 0.00 26 1006.9
20260503231600 96 190 5.2 8.7 0.00 0.00 0.00 25 1006.7
20260503231506 96 190 4.3 8.7 0.00 0.00 0.00 25 1006.8
20260503231006 97 190 0.9 7.8 0.00 0.00 0.00 25 1006.8
20260503230506 97 190 3.5 8.7 0.00 0.00 0.00 25 1006.8
20260503230104 98 190 2.6 11.3 0.00 0.00 0.00 24 1006.7
20260503230008 98 190 2.6 11.3 0.00 0.00 0.00 25 1006.8
20260503225508 98 190 3.5 13.0 0.00 0.00 0.00 24 1006.8
20260503225009 99 190 3.5 13.0 0.00 0.00 0.00 24 1006.7
20260503224611 99 190 4.3 10.4 0.00 0.00 0.00 24 1006.6
20260503224504 99 190 3.5 10.4 0.00 0.00 0.00 24 1006.6
20260503224004 99 190 6.1 10.4 0.00 0.00 0.00 24 1006.7
20260503223505 100 190 4.3 7.8 0.00 0.00 0.00 24 1006.6
20260503223100 100 190 0.0 7.0 0.00 0.00 0.00 23 1006.7
20260503223002 99 190 0.0 5.2 0.00 0.00 0.00 24 1006.8
20260503222502 98 190 0.0 7.0 0.00 0.00 0.00 25 1006.8
20260503222001 99 190 1.7 9.6 0.00 0.00 0.00 25 1006.8
20260503221606 99 190 3.5 9.6 0.00 0.00 0.00 24 1006.8
20260503221501 99 190 3.5 9.6 0.00 0.00 0.00 25 1006.9
20260503221002 99 190 0.9 9.6 0.00 0.00 0.00 25 1006.9
20260503220602 99 190 0.9 9.6 0.00 0.00 0.00 25 1006.9
20260503220100 99 190 1.7 6.1 0.00 0.00 0.00 25 1007.0
20260503220058 99 190 1.7 6.1 0.00 0.00 0.00 25 1006.8
20260503215600 99 190 2.6 5.2 0.00 0.00 0.00 26 1007.0
20260503215059 99 190 0.0 7.8 0.00 0.00 0.00 26 1007.1
20260503214559 99 190 2.6 7.8 0.00 0.00 0.00 25 1007.1
20260503214057 100 190 0.0 5.2 0.00 0.00 0.00 26 1007.2
20260503213555 99 190 0.9 5.2 0.00 0.00 0.00 26 1007.2
20260503213102 99 190 2.6 4.3 0.00 0.00 0.00 26 1007.1
20260503213057 99 190 1.7 4.3 0.00 0.00 0.00 26 1007.3
20260503212554 99 190 0.9 3.5 0.00 0.00 0.00 26 1007.5
20260503212051 98 190 0.0 7.0 0.00 0.00 0.00 27 1007.5
20260503211604 98 190 3.5 7.8 0.00 0.00 0.00 27 1007.7
20260503211600 98 190 2.6 7.8 0.00 0.00 0.00 26 1007.5
20260503211050 98 190 0.9 7.0 0.00 0.00 0.00 27 1007.7
20260503210549 98 190 0.9 9.6 0.00 0.00 0.00 27 1007.9
20260503210058 98 190 1.7 9.6 0.00 0.00 0.00 27 1007.8
20260503210048 98 190 0.0 9.6 0.00 0.00 0.00 27 1008.0
20260503205546 98 190 0.9 7.8 0.00 0.00 0.00 28 1008.0
20260503205045 97 190 1.7 7.8 0.00 0.00 0.00 28 1008.2
20260503204620 97 0 0.9 6.1 0.00 0.00 0.00 28 1008.2
20260503204545 97 190 0.9 6.1 0.00 0.00 0.00 28 1008.3
20260503204044 98 190 1.7 6.1 0.00 0.00 0.00 28 1008.5
20260503203541 97 190 0.0 7.8 0.00 0.00 0.00 29 1008.6
20260503203102 97 190 3.5 7.8 0.00 0.00 0.00 28 1008.7
20260503203057 97 190 1.7 7.8 0.00 0.00 0.00 28 1008.9
20260503202542 98 190 0.9 3.5 0.00 0.00 0.00 28 1009.0
20260503202038 97 190 0.0 6.1 0.00 0.00 0.00 29 1009.1
20260503201559 97 190 1.7 4.3 0.00 0.00 0.00 28 1008.8
20260503201538 97 190 1.7 4.3 0.00 0.00 0.00 29 1009.1
20260503201034 97 190 0.0 5.2 0.00 0.00 0.00 29 1009.2
20260503200533 97 190 0.9 5.2 0.00 0.00 0.00 29 1009.4
20260503200100 96 0 1.7 6.1 0.00 0.00 0.00 29 1009.2
20260503200035 96 190 0.9 4.3 0.00 0.00 0.00 29 1009.5
20260503195531 96 190 0.9 6.1 0.00 0.00 0.00 29 1009.6
20260503195030 96 190 0.9 7.0 0.00 0.00 0.00 29 1009.8
20260503194609 96 190 3.5 7.0 0.00 0.00 0.00 29 1009.6
20260503194529 96 190 3.5 7.0 0.00 0.00 0.00 29 1010.0
20260503194028 96 190 0.0 7.8 0.00 0.00 0.00 30 1010.1
20260503193527 96 190 2.6 7.8 0.00 0.00 0.00 30 1010.2
20260503193118 96 190 1.7 7.8 0.00 0.00 0.00 30 1010.0
20260503193026 95 190 0.9 7.8 0.00 0.00 0.00 30 1010.3
20260503192525 96 190 2.6 6.1 0.00 0.00 0.00 30 1010.4
20260503192023 95 190 0.9 5.2 0.00 0.00 0.00 31 1010.5
20260503191616 95 0 0.9 7.8 0.00 0.00 0.00 30 1010.5
20260503191521 95 190 0.9 7.8 0.00 0.00 0.00 31 1010.6
20260503191020 95 190 1.7 7.8 0.00 0.00 0.00 30 1010.8
20260503190524 95 190 2.6 6.1 0.00 0.00 0.00 31 1010.9
20260503190058 95 0 0.9 5.2 0.00 0.00 0.00 31 1010.7
20260503190023 95 190 0.0 4.3 0.00 0.00 0.00 31 1010.9
20260503185517 95 190 0.9 7.0 0.00 0.00 0.00 31 1011.1
20260503185016 94 190 1.7 8.7 0.00 0.00 0.00 32 1011.2
20260503184612 94 190 1.7 7.0 0.00 0.00 0.00 32 1011.1
20260503184515 94 190 2.6 7.0 0.00 0.00 0.00 32 1011.3
20260503184015 93 190 0.0 4.3 0.00 0.00 0.00 32 1011.4
20260503183514 94 190 0.9 7.8 0.00 0.00 0.00 32 1011.6
20260503183101 94 0 2.6 8.7 0.00 0.00 0.00 32 1011.4
20260503183012 93 190 1.7 8.7 0.00 0.00 0.00 33 1011.8
20260503182515 94 190 3.5 8.7 0.00 0.00 0.00 32 1011.9
20260503182010 94 190 3.5 7.0 0.00 0.00 0.00 33 1011.9
20260503181559 94 190 0.9 6.1 0.00 0.00 0.00 32 1011.6
20260503181509 94 190 0.9 6.1 0.00 0.00 0.00 33 1012.0
20260503181010 93 190 2.6 6.1 0.00 0.00 0.00 33 1012.2
20260503180508 93 190 1.7 6.1 0.00 0.00 0.00 34 1012.2
20260503180016 92 190 1.7 9.6 0.00 0.00 0.00 35 1012.3
20260503175506 93 190 3.5 9.6 0.00 0.00 0.00 34 1012.3
20260503175005 93 190 0.0 7.0 0.00 0.00 0.00 35 1012.3
20260503174604 92 190 2.6 7.0 0.00 0.00 0.00 35 1012.1
20260503174513 92 190 1.7 7.0 0.00 0.00 0.00 35 1012.5
20260503174007 92 190 0.0 5.2 0.00 0.00 0.00 36 1012.6
20260503173502 92 190 0.9 6.1 0.00 0.00 0.00 36 1012.8
20260503173105 92 190 1.7 7.8 0.00 0.00 0.00 36 1012.5
20260503173001 91 190 1.7 7.8 0.00 0.00 0.00 37 1012.9
20260503172600 91 190 0.9 7.8 0.00 0.00 0.00 36 1013.0
20260503172100 91 190 3.5 9.6 0.00 0.00 0.00 37 1013.1
20260503171601 91 190 0.0 5.2 0.00 0.00 0.00 37 1013.1
20260503171557 91 190 0.9 6.1 0.00 0.00 0.00 36 1012.8
20260503171058 91 190 0.9 6.1 0.00 0.00 0.00 37 1013.3
20260503170558 90 190 0.0 5.2 0.00 0.00 0.00 37 1013.5
20260503170117 91 190 0.9 7.0 0.00 0.00 0.00 37 1013.1
20260503160108 88 190 0.9 9.6 0.00 0.00 0.00 39 1014.0
20260503150536 84 190 0.0 0.9 0.00 0.00 0.00 32 1014.8
20260503131017 72 190 0.0 0.9 0.00 0.00 0.00 47 1014.2
20260503130519 72 190 0.0 1.7 0.00 0.00 0.00 47 1014.1
20260503110555 74 190 0.0 0.9 0.00 0.00 0.00 44 1012.6
20260503100107 77 0 0.0 0.0 0.00 0.00 0.00 40 1011.4
20260503081600 78 0 0.0 0.0 0.00 0.00 0.00 43 1011.5
20260503081536 78 190 0.0 0.0 0.00 0.00 0.00 43 1012.4
20260503081036 78 190 0.0 0.0 0.00 0.00 0.00 44 1012.4
20260503080539 78 190 0.0 0.0 0.00 0.00 0.00 43 1012.4
20260503080105 78 0 0.0 0.0 0.00 0.00 0.00 43 1011.7
20260503072532 78 190 0.0 0.0 0.00 0.00 0.00 45 1012.4
20260503072032 78 190 0.0 0.0 0.00 0.00 0.00 44 1012.3
20260503071612 78 0 0.0 0.0 0.00 0.00 0.00 43 1011.4
20260503071531 78 190 0.0 0.0 0.00 0.00 0.00 44 1012.3
20260503071030 78 190 0.0 0.0 0.00 0.00 0.00 43 1012.3
20260503070530 78 190 0.0 0.0 0.00 0.00 0.00 43 1012.3